User: anonymous   Login
Location: Unspecified
(0.0000°N, 0.0000°E)
Time: 18:51:20
(UTC+00:00)
Language:

DNEPR OBJECT AC - Orbit

View from above orbital plane
View from above orbital plane
View from above satellite
View from above satellite

Ground track
Ground track

The orbit data is extracted from the following two-line orbital elements,

1 39442U 13066AC  19341.51819877  .00000387  00000-0  44229-4 0  9995
2 39442  97.5287  17.6555 0033185  98.6487 261.8494 14.90888759327255
Epoch (UTC): 07 December 2019 12:26:12
Eccentricity: 0.0033185
inclination: 97.5287°
perigee height: 572 km
apogee height: 618 km
right ascension of ascending node: 17.6555°
argument of perigee: 98.6487°
revolutions per day: 14.90888759
mean anomaly at epoch: 261.8494°
orbit number at epoch: 32725

The dashed part of the orbit path shows where the satellite is in the earth's shadow,  

DLR